Вернуться в каталог

STARLINK-36883

АктивенСвязьSSO
NORAD 67975·PAYLOAD·🇺🇸 United States

Запущен Feb 25, 2026 с Vandenberg Space Force Base

Loading…

Ближайшие Пролёты (ближайшие 24 часа)

TLE

СвежийSource: CelesTrak SupGP

Эпоха: Sep 15, 2026, 04:21 UTC

1 67975C 26038Q   26258.18173611 -.00058364  00000+0 -18139-2 0  2583
2 67975  97.2844 266.6395 0001524  86.7517 181.4730 15.33430093    19

Отслеживайте STARLINK-36883 в реальном времени с AllMySat

Download on the App Store